Starlink 32156

operational
NORAD ID: 60278 Int'l Des: 2024-132 Owner: SPXS Country: US Constellation: starlink
LEOCIRCULAR

Starlink 32156について

説明を読み込み中...

リアルタイム位置

3D地球を読み込み中...

次回通過

高度履歴

Altitude vs Time

uPlot chart will show altitude changes over time

軌道要素

1 60278U 24132A 25308.88626346 .00001741 00000-0 70880-4 0 9996
2 60278 53.1620 272.0455 0001250 104.9440 255.1699 15.30198766 73673
Epoch: Nov 4, 2025 • Age: 9 hours

現在のステータス

高度 482.7 km
速度 7.62 km/s
衛星直下点 -24.88°S, 24.59°W
打ち上げ日 Jul 28, 2024
運用期間 1.2 years
タイプ internet

技術仕様

分類 Payload
質量 730.00 kg
乾燥質量 700.00 kg
総質量 730.00 kg
長さ 0.30 m
直径 4.10 m
スパン 29.00 m
形状 Box + pan
製造者 SPXS
バスタイプ Starlink V2M
フェーズステータス In Orbit
所有者/国 SPXS/US

大規模コンステレーション

Loading constellations...